CW8254 Weather Reports


Display with metric or nautical units.
time (UTC)temp
F
wind
direction
speed
MPH
gust
MPH
rain 1hr
in
rain 24hr
in
rain mn
in
humidity
%
barometer
mb
20260505164225 64 315 3.0 7.0 0.00 0.00 0.00 48 1014.1
20260505163724 64 338 2.0 7.0 0.00 0.00 0.00 48 1014.1
20260505163224 64 0 3.0 9.0 0.00 0.00 0.00 48 1014.1
20260505162724 64 0 5.0 9.0 0.00 0.00 0.00 48 1014.1
20260505162225 64 0 4.0 9.0 0.00 0.00 0.00 48 1014.1
20260505161725 64 0 3.0 7.0 0.00 0.00 0.00 48 1014.1
20260505161224 64 0 4.0 7.0 0.00 0.00 0.00 48 1014.1
20260505160726 64 135 5.0 6.0 0.00 0.00 0.00 48 1014.1
20260505153226 66 338 4.0 6.0 0.00 0.00 0.00 47 1014.1
20260505152224 66 135 3.0 7.0 0.00 0.00 0.00 47 1014.1
20260505151726 66 202 3.0 9.0 0.00 0.00 0.00 46 1014.1
20260505151224 66 135 4.0 9.0 0.00 0.00 0.00 46 1014.1
20260505150725 65 0 4.0 9.0 0.00 0.00 0.00 46 1014.1
20260505150224 66 315 3.0 9.0 0.00 0.00 0.00 47 1014.1
20260505140224 66 0 4.0 7.0 0.00 0.00 0.00 49 1014.1
20260505124725 64 135 2.0 8.0 0.00 0.00 0.00 55 1014.1
20260505124224 64 0 3.0 6.0 0.00 0.00 0.00 54 1014.1
20260505123726 63 338 4.0 7.0 0.00 0.00 0.00 55 1014.1
20260505123225 63 315 4.0 7.0 0.00 0.00 0.00 55 1014.1
20260505122746 63 338 2.0 8.0 0.00 0.00 0.00 56 1014.1
20260505122224 63 158 3.0 8.0 0.00 0.00 0.00 56 1014.1
20260505121225 62 338 3.0 8.0 0.00 0.00 0.00 58 1014.1
20260505120725 62 135 2.0 8.0 0.00 0.00 0.00 57 1014.1
20260505120226 62 338 3.0 8.0 0.00 0.00 0.00 58 1014.1
20260505115724 62 338 6.0 8.0 0.00 0.00 0.00 58 1014.1
20260505115224 62 0 5.0 8.0 0.00 0.00 0.00 59 1014.1
20260505114726 61 0 4.0 8.0 0.00 0.00 0.00 59 1014.1
20260505114224 61 0 2.0 7.0 0.00 0.00 0.00 59 1014.1
20260505113726 61 202 4.0 7.0 0.00 0.00 0.00 59 1014.1
20260505113224 61 135 4.0 8.0 0.00 0.00 0.00 59 1014.1
20260505112724 61 338 5.0 9.0 0.00 0.00 0.00 60 1014.1
20260505112225 61 315 4.0 10.0 0.00 0.00 0.00 60 1014.1
20260505111723 61 338 4.0 10.0 0.00 0.00 0.00 60 1014.1
20260505110724 61 315 3.0 11.0 0.00 0.00 0.00 61 1014.1
20260505110226 61 0 2.0 11.0 0.00 0.00 0.00 61 1014.1
20260505101725 60 0 6.0 9.0 0.00 0.00 0.00 63 1015.1
20260505101225 60 315 3.0 9.0 0.00 0.00 0.00 63 1015.1
20260505100724 60 0 6.0 7.0 0.00 0.00 0.00 64 1015.1
20260505095725 60 338 5.0 8.0 0.00 0.00 0.00 64 1015.1
20260505095224 60 338 3.0 8.0 0.00 0.00 0.00 64 1015.1
20260505094726 59 338 4.0 8.0 0.00 0.00 0.00 65 1015.1
20260505094224 59 0 3.0 10.0 0.00 0.00 0.00 65 1015.1
20260505093225 59 315 4.0 10.0 0.00 0.00 0.00 64 1015.1
20260505092724 59 315 4.0 7.0 0.00 0.00 0.00 65 1015.1
20260505092224 59 338 4.0 9.0 0.00 0.00 0.00 67 1015.1
20260505091724 59 0 4.0 9.0 0.00 0.00 0.00 66 1015.1
20260505091226 59 0 4.0 8.0 0.00 0.00 0.00 67 1015.1
20260505090725 58 0 6.0 8.0 0.00 0.00 0.00 68 1015.1
20260505085724 58 0 6.0 8.0 0.00 0.00 0.00 69 1015.1
20260505085224 57 0 3.0 8.0 0.00 0.00 0.00 69 1015.1
20260505084726 57 315 5.0 8.0 0.00 0.00 0.00 69 1015.1
20260505083726 57 292 3.0 8.0 0.00 0.00 0.00 72 1015.1
20260505083224 57 0 3.0 8.0 0.00 0.00 0.00 72 1015.1
20260505082225 56 0 6.0 11.0 0.00 0.00 0.00 72 1015.1
20260505081725 56 315 3.0 11.0 0.00 0.00 0.00 73 1015.1
20260505081224 56 0 4.0 9.0 0.00 0.00 0.00 73 1015.1
20260505080724 56 0 5.0 9.0 0.00 0.00 0.00 73 1015.1
20260505080225 56 338 5.0 10.0 0.00 0.00 0.00 74 1015.1
20260505075724 56 338 7.0 10.0 0.00 0.00 0.00 74 1015.1
20260505075224 55 338 4.0 10.0 0.00 0.00 0.00 75 1015.1
20260505074724 55 315 5.0 11.0 0.00 0.00 0.00 76 1015.1
20260505073724 55 0 4.0 8.0 0.00 0.00 0.00 77 1014.1
20260505073224 55 0 6.0 8.0 0.00 0.00 0.00 78 1014.1
20260505072725 55 0 4.0 8.0 0.00 0.00 0.00 78 1014.1
20260505072224 55 338 4.0 12.0 0.00 0.00 0.00 78 1015.1
20260505071726 55 315 5.0 12.0 0.00 0.00 0.00 78 1015.1
20260505071224 55 0 4.0 12.0 0.00 0.00 0.00 78 1015.1
20260505065725 54 315 5.0 12.0 0.00 0.00 0.00 80 1015.1
20260505065225 54 315 6.0 10.0 0.00 0.00 0.00 81 1015.1
20260505064224 53 315 6.0 10.0 0.00 0.00 0.00 81 1015.1
20260505063226 54 338 4.0 9.0 0.00 0.00 0.00 82 1015.1
20260505062724 53 338 7.0 9.0 0.00 0.00 0.00 82 1015.1
20260505061725 53 338 6.0 10.0 0.00 0.00 0.00 83 1015.1
20260505061224 53 338 4.0 9.0 0.00 0.00 0.00 83 1015.1
20260505055226 52 0 4.0 6.0 0.00 0.00 0.00 84 1015.1
20260505054236 52 315 4.0 5.0 0.00 0.00 0.00 84 1015.1
20260505053725 52 338 3.0 4.0 0.00 0.00 0.00 84 1015.1
20260505053224 52 202 3.0 4.0 0.00 0.00 0.00 84 1015.1
20260505052725 52 0 3.0 5.0 0.00 0.00 0.00 84 1015.1
20260505052226 51 292 3.0 5.0 0.00 0.00 0.00 84 1015.1
20260505051224 51 338 3.0 4.0 0.00 0.00 0.00 84 1015.1
20260505050725 51 338 2.0 3.0 0.00 0.00 0.00 84 1015.1
20260505050224 51 270 1.0 4.0 0.00 0.00 0.00 84 1015.1
20260505041724 52 315 1.0 4.0 0.00 0.00 0.00 84 1015.1
20260505041224 52 0 2.0 4.0 0.00 0.00 0.00 84 1015.1
20260505040724 52 0 3.0 3.0 0.00 0.00 0.00 84 1015.1
20260505040225 52 0 2.0 3.0 0.00 0.00 0.00 84 1015.1
20260505035724 52 0 0.0 3.0 0.00 0.00 0.00 84 1015.1
20260505035225 52 202 0.0 3.0 0.00 0.00 0.00 84 1015.1
20260505034725 52 0 0.0 2.0 0.00 0.00 0.00 84 1015.1
20260505034226 52 292 0.0 4.0 0.00 0.00 0.00 84 1015.1
20260505033725 52 292 1.0 4.0 0.00 0.00 0.00 84 1015.1
20260505033224 52 180 1.0 4.0 0.00 0.00 0.00 84 1015.1
20260505032724 52 0 1.0 4.0 0.00 0.00 0.00 84 1015.1
20260505032225 52 0 2.0 4.0 0.00 0.00 0.00 84 1015.1
20260505031724 52 0 2.0 3.0 0.00 0.00 0.00 84 1015.1
20260505031224 52 0 1.0 4.0 0.00 0.00 0.00 84 1015.1
20260505030224 52 315 1.0 4.0 0.00 0.00 0.00 84 1015.1
20260505025724 52 0 3.0 4.0 0.00 0.00 0.00 84 1015.1
20260505025225 52 338 3.0 4.0 0.00 0.00 0.00 84 1016.1
20260505024724 53 315 2.0 5.0 0.00 0.00 0.00 84 1016.1
20260505024224 53 338 2.0 5.0 0.00 0.00 0.00 84 1016.1
20260505023724 53 0 2.0 5.0 0.00 0.00 0.00 84 1016.1
20260505023224 53 0 1.0 6.0 0.00 0.00 0.00 84 1016.1
20260505022725 53 0 3.0 6.0 0.00 0.00 0.00 84 1016.1
20260505022224 53 135 2.0 6.0 0.00 0.00 0.00 84 1016.1
20260505021726 53 135 3.0 5.0 0.00 0.00 0.00 84 1016.1
20260505021225 53 0 2.0 6.0 0.00 0.00 0.00 83 1016.1
20260505020724 53 292 2.0 6.0 0.00 0.00 0.00 83 1016.1
20260505020224 53 0 3.0 5.0 0.00 0.00 0.00 83 1016.1
20260505015724 53 0 2.0 6.0 0.00 0.00 0.00 83 1016.1
20260505015224 53 135 2.0 6.0 0.00 0.00 0.00 83 1016.1
20260505014725 53 0 4.0 4.0 0.00 0.00 0.00 83 1016.1
20260505013724 53 0 2.0 8.0 0.00 0.00 0.00 83 1016.1
20260505013226 53 315 3.0 4.0 0.00 0.00 0.00 83 1016.1
20260505012724 53 0 2.0 6.0 0.00 0.00 0.00 83 1016.1
20260505012224 53 338 3.0 6.0 0.00 0.00 0.00 83 1016.1
20260505011724 53 202 3.0 4.0 0.00 0.00 0.00 83 1016.1
20260505011224 53 0 2.0 4.0 0.00 0.00 0.00 84 1016.1
20260505010726 53 315 0.0 4.0 0.00 0.00 0.00 84 1016.1
20260505010224 53 0 1.0 4.0 0.00 0.00 0.00 84 1016.1
20260505005725 53 338 3.0 4.0 0.00 0.00 0.00 84 1016.1
20260505005225 53 180 2.0 4.0 0.00 0.00 0.00 84 1016.1
20260505004725 53 338 2.0 4.0 0.00 0.00 0.00 84 1016.1
20260505004226 53 338 2.0 4.0 0.00 0.00 0.00 84 1016.1
20260505002725 53 202 1.0 4.0 0.00 0.00 0.00 84 1016.1
20260505002224 54 0 1.0 6.0 0.00 0.00 0.00 84 1017.1
20260505001224 53 0 0.0 6.0 0.00 0.00 0.00 84 1017.1
20260505000726 54 135 2.0 6.0 0.00 0.00 0.00 83 1016.1
20260504235725 54 0 4.0 6.0 0.00 0.00 0.00 83 1016.1
20260504234724 54 292 2.0 5.0 0.00 0.00 0.00 83 1017.1
20260504234224 54 202 1.0 5.0 0.00 0.00 0.00 83 1017.1
20260504233725 54 135 1.0 5.0 0.00 0.00 0.00 83 1017.1
20260504233224 54 0.0 5.0 0.00 0.00 0.00 84 1017.1
20260504232733 54 0 2.0 6.0 0.00 0.00 0.00 83 1017.1
20260504232248 54 0.0 6.0 0.00 0.00 0.00 83 1017.1
20260504231725 54 338 4.0 6.0 0.00 0.00 0.00 83 1017.1
20260504231224 54 0 1.0 5.0 0.00 0.00 0.00 83 1017.1
20260504230724 54 135 1.0 4.0 0.00 0.00 0.00 83 1017.1
20260504224724 54 135 2.0 4.0 0.00 0.00 0.00 84 1017.1
20260504224226 54 292 0.0 4.0 0.00 0.00 0.00 84 1017.1
20260504223724 54 338 2.0 4.0 0.00 0.00 0.00 84 1017.1
20260504223224 54 292 0.0 4.0 0.00 0.00 0.00 84 1017.1
20260504222725 54 292 1.0 4.0 0.00 0.00 0.00 84 1017.1
20260504221224 54 292 1.0 5.0 0.00 0.00 0.00 84 1017.1
20260504220224 54 0 3.0 6.0 0.00 0.00 0.00 84 1017.1
20260504215724 54 315 2.0 6.0 0.00 0.00 0.00 84 1017.1
20260504214724 55 338 3.0 4.0 0.00 0.00 0.00 83 1017.1
20260504214225 55 135 2.0 4.0 0.00 0.00 0.00 83 1017.1
20260504213726 55 292 2.0 4.0 0.00 0.00 0.00 84 1017.1
20260504212225 55 338 3.0 6.0 0.00 0.00 0.00 83 1017.1
20260504211724 55 0 4.0 6.0 0.00 0.00 0.00 82 1017.1
20260504211224 55 0 3.0 6.0 0.00 0.00 0.00 82 1017.1
20260504210224 55 0 3.0 4.0 0.00 0.00 0.00 82 1017.1
20260504205726 55 270 2.0 5.0 0.00 0.00 0.00 82 1017.1
20260504204724 55 292 2.0 4.0 0.00 0.00 0.00 81 1017.1
20260504204224 55 0 3.0 4.0 0.00 0.00 0.00 81 1017.1
20260504203724 56 338 1.0 4.0 0.00 0.00 0.00 81 1017.1
20260504203225 56 180 2.0 4.0 0.00 0.00 0.00 81 1017.1
20260504202724 56 0 2.0 4.0 0.00 0.00 0.00 81 1017.1
20260504202225 56 0 3.0 3.0 0.00 0.00 0.00 81 1017.1
20260504201225 56 292 1.0 6.0 0.00 0.00 0.00 80 1017.1
20260504200725 56 158 2.0 6.0 0.00 0.00 0.00 80 1017.1
20260504195224 56 292 3.0 4.0 0.00 0.00 0.00 79 1017.1
20260504194226 56 315 2.0 4.0 0.00 0.00 0.00 79 1017.1
20260504193724 56 315 1.0 4.0 0.00 0.00 0.00 79 1017.1
20260504193226 56 338 1.0 3.0 0.00 0.00 0.00 79 1017.1
20260504192724 56 292 2.0 3.0 0.00 0.00 0.00 78 1017.1
20260504191725 57 0 2.0 3.0 0.00 0.00 0.00 78 1016.1
20260504191224 57 0 2.0 4.0 0.00 0.00 0.00 78 1016.1
20260504190724 57 292 1.0 4.0 0.00 0.00 0.00 77 1017.1
20260504190224 58 180 1.0 4.0 0.00 0.00 0.00 77 1017.1
20260504185724 58 202 0.0 4.0 0.00 0.00 0.00 77 1017.1
20260504185225 58 202 0.0 4.0 0.00 0.00 0.00 77 1017.1
20260504184725 58 315 2.0 4.0 0.00 0.00 0.00 76 1017.1
20260504184226 59 0 1.0 3.0 0.00 0.00 0.00 76 1017.1
20260504183724 59 202 2.0 3.0 0.00 0.00 0.00 76 1017.1
20260504182724 60 202 2.0 4.0 0.00 0.00 0.00 76 1017.1
20260504182226 60 0 2.0 4.0 0.00 0.00 0.00 76 1017.1
20260504181724 60 202 3.0 4.0 0.00 0.00 0.00 76 1017.1
20260504181224 60 0 2.0 4.0 0.00 0.00 0.00 75 1017.1
20260504180725 60 0 2.0 4.0 0.00 0.00 0.00 75 1016.1
20260504180225 60 338 2.0 4.0 0.00 0.00 0.00 75 1016.1
20260504175730 60 202 2.0 4.0 0.00 0.00 0.00 75 1016.1
20260504175224 60 292 1.0 5.0 0.00 0.00 0.00 75 1016.1
20260504174724 60 315 2.0 5.0 0.00 0.00 0.00 74 1016.1
20260504174226 60 338 2.0 5.0 0.00 0.00 0.00 74 1016.1
20260504173725 60 0 4.0 5.0 0.00 0.00 0.00 74 1016.1
20260504173224 60 0 2.0 5.0 0.00 0.00 0.00 74 1016.1
20260504172726 61 0 4.0 4.0 0.00 0.00 0.00 74 1016.1
20260504172224 61 0 2.0 4.0 0.00 0.00 0.00 73 1016.1
20260504171725 61 292 3.0 4.0 0.00 0.00 0.00 73 1016.1
20260504171224 61 315 2.0 6.0 0.00 0.00 0.00 73 1016.1
20260504170724 61 0 2.0 6.0 0.00 0.00 0.00 73 1016.1
20260504170225 61 338 2.0 6.0 0.00 0.00 0.00 73 1016.1